Time,TemperatureF,DewpointF,PressureIn,WindDirection,WindDirectionDegrees,WindSpeedMPH,WindSpeedGustMPH,Humidity,HourlyPrecipIn,Conditions,Clouds,dailyrainin,SoftwareType,DateUTC
2013-04-19 00:01:00,36.5,27.7,29.52,WSW,247,4.0,8.3,70,0.00,,,0.00,WUHU21623XXSP,2013-04-19 05:01:00,
2013-04-19 00:06:00,36.3,27.5,29.52,SSW,202,8.1,8.3,70,0.00,,,0.00,WUHU21623XXSP,2013-04-19 05:06:00,
2013-04-19 00:11:00,36.3,27.1,29.51,West,270,11.6,11.6,69,0.00,,,0.00,WUHU21623XXSP,2013-04-19 05:11:00,
2013-04-19 00:16:00,36.1,26.9,29.51,West,270,5.4,11.6,69,0.00,,,0.00,WUHU21623XXSP,2013-04-19 05:16:00,
2013-04-19 00:21:00,36.1,26.9,29.51,WSW,247,0.7,8.7,69,0.00,,,0.00,WUHU21623XXSP,2013-04-19 05:21:00,
2013-04-19 00:26:00,36.0,26.8,29.50,NE,45,0.7,7.8,69,0.00,,,0.00,WUHU21623XXSP,2013-04-19 05:26:00,
2013-04-19 00:31:00,36.0,27.1,29.50,West,270,0.7,7.8,70,0.00,,,0.00,WUHU21623XXSP,2013-04-19 05:31:00,
2013-04-19 00:36:00,36.0,27.1,29.51,WSW,247,6.7,6.7,70,0.00,,,0.00,WUHU21623XXSP,2013-04-19 05:36:00,
2013-04-19 00:41:00,36.0,27.1,29.50,WSW,247,3.1,9.2,70,0.00,,,0.00,WUHU21623XXSP,2013-04-19 05:41:00,
2013-04-19 00:46:00,35.8,27.0,29.50,South,180,0.0,9.2,70,0.00,,,0.00,WUHU21623XXSP,2013-04-19 05:46:00,
2013-04-19 00:51:00,35.8,27.0,29.51,West,270,4.3,4.3,70,0.00,,,0.00,WUHU21623XXSP,2013-04-19 05:51:00,
2013-04-19 00:56:00,35.8,27.3,29.51,WSW,247,0.9,4.3,71,0.00,,,0.00,WUHU21623XXSP,2013-04-19 05:56:00,
2013-04-19 01:01:00,35.8,27.3,29.50,WSW,247,6.7,6.7,71,0.00,,,0.00,WUHU21623XXSP,2013-04-19 06:01:00,
2013-04-19 01:06:00,35.8,27.3,29.50,WSW,247,2.5,6.7,71,0.00,,,0.00,WUHU21623XXSP,2013-04-19 06:06:00,
2013-04-19 01:11:00,35.8,27.3,29.50,SW,225,2.7,5.4,71,0.00,,,0.00,WUHU21623XXSP,2013-04-19 06:11:00,
2013-04-19 01:16:00,35.8,27.3,29.50,WSW,247,2.9,5.4,71,0.00,,,0.00,WUHU21623XXSP,2013-04-19 06:16:00,
2013-04-19 01:21:00,35.6,27.1,29.50,SW,225,6.0,6.0,71,0.00,,,0.00,WUHU21623XXSP,2013-04-19 06:21:00,
2013-04-19 01:26:00,35.6,27.1,29.50,WNW,292,4.9,8.7,71,0.00,,,0.00,WUHU21623XXSP,2013-04-19 06:26:00,
2013-04-19 01:31:00,35.6,27.4,29.50,West,270,2.2,8.7,72,0.00,,,0.00,WUHU21623XXSP,2013-04-19 06:31:00,
2013-04-19 01:36:00,35.4,27.2,29.49,South,180,1.6,6.7,72,0.00,,,0.00,WUHU21623XXSP,2013-04-19 06:36:00,
2013-04-19 01:41:00,35.4,27.2,29.50,SW,225,7.2,7.2,72,0.00,,,0.00,WUHU21623XXSP,2013-04-19 06:41:00,
2013-04-19 01:46:00,35.2,27.1,29.50,WSW,247,4.7,7.2,72,0.00,,,0.00,WUHU21623XXSP,2013-04-19 06:46:00,
2013-04-19 01:51:00,35.2,27.1,29.50,WSW,247,0.0,6.0,72,0.00,,,0.00,WUHU21623XXSP,2013-04-19 06:51:00,
2013-04-19 01:56:00,35.4,26.9,29.50,WSW,247,6.5,6.5,71,0.00,,,0.00,WUHU21623XXSP,2013-04-19 06:56:00,
2013-04-19 02:01:00,35.4,27.2,29.50,SW,225,3.1,6.5,72,0.00,,,0.00,WUHU21623XXSP,2013-04-19 07:01:00,
2013-04-19 02:06:00,35.2,27.1,29.50,WSW,247,6.0,6.0,72,0.00,,,0.00,WUHU21623XXSP,2013-04-19 07:06:00,
2013-04-19 02:11:00,35.2,27.1,29.50,West,270,8.3,8.3,72,0.00,,,0.00,WUHU21623XXSP,2013-04-19 07:11:00,
2013-04-19 02:16:00,35.2,27.1,29.49,WNW,292,5.1,8.3,72,0.00,,,0.00,WUHU21623XXSP,2013-04-19 07:16:00,
2013-04-19 02:21:00,35.2,27.1,29.49,SW,225,4.0,6.3,72,0.00,,,0.00,WUHU21623XXSP,2013-04-19 07:21:00,
2013-04-19 02:26:00,35.1,26.6,29.49,SW,225,2.0,6.3,71,0.00,,,0.00,WUHU21623XXSP,2013-04-19 07:26:00,
2013-04-19 02:31:00,35.1,26.6,29.49,WSW,247,4.7,6.3,71,0.00,,,0.00,WUHU21623XXSP,2013-04-19 07:31:00,
2013-04-19 02:36:00,35.1,26.6,29.49,South,180,0.0,9.6,71,0.00,,,0.00,WUHU21623XXSP,2013-04-19 07:36:00,
2013-04-19 02:41:00,35.1,26.6,29.49,NW,315,0.4,9.6,71,0.00,,,0.00,WUHU21623XXSP,2013-04-19 07:41:00,
2013-04-19 02:46:00,35.1,26.2,29.49,West,270,8.9,8.9,70,0.00,,,0.00,WUHU21623XXSP,2013-04-19 07:46:00,
2013-04-19 02:51:00,35.1,26.2,29.50,East,90,2.9,8.9,70,0.00,,,0.00,WUHU21623XXSP,2013-04-19 07:51:00,
2013-04-19 02:56:00,34.9,26.1,29.50,SSE,157,0.0,7.8,70,0.00,,,0.00,WUHU21623XXSP,2013-04-19 07:56:00,
2013-04-19 03:01:00,34.9,26.1,29.50,WSW,247,2.7,7.8,70,0.00,,,0.00,WUHU21623XXSP,2013-04-19 08:01:00,
2013-04-19 03:06:00,34.9,26.1,29.50,SSW,202,1.3,9.6,70,0.00,,,0.00,WUHU21623XXSP,2013-04-19 08:06:00,
2013-04-19 03:11:00,34.9,26.4,29.50,SSW,202,1.3,9.6,71,0.00,,,0.00,WUHU21623XXSP,2013-04-19 08:11:00,
2013-04-19 03:16:00,34.9,26.4,29.50,WSW,247,7.8,7.8,71,0.00,,,0.00,WUHU21623XXSP,2013-04-19 08:16:00,
2013-04-19 03:21:00,34.9,26.1,29.50,WSW,247,4.7,7.8,70,0.00,,,0.00,WUHU21623XXSP,2013-04-19 08:21:00,
2013-04-19 03:26:00,34.7,25.9,29.50,SW,225,6.3,6.5,70,0.00,,,0.00,WUHU21623XXSP,2013-04-19 08:26:00,
2013-04-19 03:31:00,34.7,25.9,29.50,West,270,5.6,7.8,70,0.00,,,0.00,WUHU21623XXSP,2013-04-19 08:31:00,
2013-04-19 03:36:00,34.9,26.1,29.50,SW,225,7.6,7.8,70,0.00,,,0.00,WUHU21623XXSP,2013-04-19 08:36:00,
2013-04-19 03:41:00,34.7,25.9,29.50,WSW,247,2.5,7.6,70,0.00,,,0.00,WUHU21623XXSP,2013-04-19 08:41:00,
2013-04-19 03:46:00,34.7,25.9,29.50,WSW,247,7.8,7.8,70,0.00,,,0.00,WUHU21623XXSP,2013-04-19 08:46:00,
2013-04-19 03:51:00,34.7,25.9,29.50,SW,225,8.5,8.5,70,0.00,,,0.00,WUHU21623XXSP,2013-04-19 08:51:00,
2013-04-19 03:56:00,34.7,25.9,29.50,WSW,247,6.0,8.5,70,0.00,,,0.00,WUHU21623XXSP,2013-04-19 08:56:00,
2013-04-19 04:01:00,34.7,25.9,29.50,SSW,202,1.3,6.5,70,0.00,,,0.00,WUHU21623XXSP,2013-04-19 09:01:00,
2013-04-19 04:06:00,34.7,25.9,29.50,SW,225,7.8,7.8,70,0.00,,,0.00,WUHU21623XXSP,2013-04-19 09:06:00,
2013-04-19 04:11:00,34.5,25.3,29.50,WSW,247,7.2,7.8,69,0.00,,,0.00,WUHU21623XXSP,2013-04-19 09:11:00,
2013-04-19 04:16:00,34.5,25.7,29.50,WSW,247,3.1,7.2,70,0.00,,,0.00,WUHU21623XXSP,2013-04-19 09:16:00,
2013-04-19 04:21:00,34.5,25.7,29.50,SSW,202,4.7,9.2,70,0.00,,,0.00,WUHU21623XXSP,2013-04-19 09:21:00,
2013-04-19 04:26:00,34.5,25.7,29.50,SSW,202,4.5,9.2,70,0.00,,,0.00,WUHU21623XXSP,2013-04-19 09:26:00,
2013-04-19 04:31:00,34.5,25.7,29.50,WNW,292,5.4,5.4,70,0.00,,,0.00,WUHU21623XXSP,2013-04-19 09:31:00,
2013-04-19 04:36:00,34.5,25.7,29.50,SW,225,6.3,6.7,70,0.00,,,0.00,WUHU21623XXSP,2013-04-19 09:36:00,
2013-04-19 04:41:00,34.5,25.7,29.50,West,270,2.7,6.7,70,0.00,,,0.00,WUHU21623XXSP,2013-04-19 09:41:00,
2013-04-19 04:46:00,34.5,25.7,29.50,WSW,247,4.9,5.6,70,0.00,,,0.00,WUHU21623XXSP,2013-04-19 09:46:00,
2013-04-19 04:51:00,34.5,25.7,29.50,SW,225,2.5,5.6,70,0.00,,,0.00,WUHU21623XXSP,2013-04-19 09:51:00,
2013-04-19 04:56:00,34.5,25.7,29.51,WSW,247,4.9,5.6,70,0.00,,,0.00,WUHU21623XXSP,2013-04-19 09:56:00,
2013-04-19 05:01:00,34.5,25.7,29.50,SW,225,2.9,6.5,70,0.00,,,0.00,WUHU21623XXSP,2013-04-19 10:01:00,
2013-04-19 05:06:00,34.5,25.7,29.50,SW,225,2.5,6.5,70,0.00,,,0.00,WUHU21623XXSP,2013-04-19 10:06:00,
2013-04-19 05:11:00,34.5,25.7,29.50,West,270,10.7,10.7,70,0.00,,,0.00,WUHU21623XXSP,2013-04-19 10:11:00,
2013-04-19 05:16:00,34.3,25.8,29.50,SW,225,5.6,10.7,71,0.00,,,0.00,WUHU21623XXSP,2013-04-19 10:16:00,
2013-04-19 05:21:00,34.3,25.8,29.50,SSW,202,1.1,6.5,71,0.00,,,0.00,WUHU21623XXSP,2013-04-19 10:21:00,
2013-04-19 05:26:00,34.5,26.0,29.50,WSW,247,2.9,6.5,71,0.00,,,0.00,WUHU21623XXSP,2013-04-19 10:26:00,
2013-04-19 05:31:00,34.3,25.8,29.50,SW,225,4.3,5.6,71,0.00,,,0.00,WUHU21623XXSP,2013-04-19 10:31:00,
2013-04-19 05:36:00,34.3,25.8,29.50,West,270,1.8,5.4,71,0.00,,,0.00,WUHU21623XXSP,2013-04-19 10:36:00,
2013-04-19 05:41:00,34.3,25.8,29.50,SSW,202,0.7,3.4,71,0.00,,,0.00,WUHU21623XXSP,2013-04-19 10:41:00,
2013-04-19 05:46:00,34.0,26.0,29.50,SW,225,2.9,4.9,72,0.00,,,0.00,WUHU21623XXSP,2013-04-19 10:46:00,
2013-04-19 05:51:00,34.0,26.1,29.50,West,270,2.7,4.9,73,0.00,,,0.00,WUHU21623XXSP,2013-04-19 10:51:00,
2013-04-19 05:56:00,33.8,26.0,29.50,WSW,247,4.3,4.3,73,0.00,,,0.00,WUHU21623XXSP,2013-04-19 10:56:00,
2013-04-19 06:01:00,33.6,26.1,29.50,WSW,247,3.4,4.3,74,0.00,,,0.00,WUHU21623XXSP,2013-04-19 11:01:00,
2013-04-19 06:06:00,33.6,26.4,29.50,SW,225,0.7,3.8,75,0.00,,,0.00,WUHU21623XXSP,2013-04-19 11:06:00,
2013-04-19 06:11:00,33.4,26.3,29.50,South,180,3.4,3.4,75,0.00,,,0.00,WUHU21623XXSP,2013-04-19 11:11:00,
2013-04-19 06:16:00,33.4,26.6,29.50,SW,225,6.0,6.3,76,0.00,,,0.00,WUHU21623XXSP,2013-04-19 11:16:00,
2013-04-19 06:21:00,33.4,26.6,29.51,WSW,247,2.0,6.3,76,0.00,,,0.00,WUHU21623XXSP,2013-04-19 11:21:00,
2013-04-19 06:26:00,33.6,26.8,29.51,SW,225,4.9,4.9,76,0.00,,,0.00,WUHU21623XXSP,2013-04-19 11:26:00,
2013-04-19 06:31:00,33.8,26.6,29.51,WSW,247,2.5,4.9,75,0.00,,,0.00,WUHU21623XXSP,2013-04-19 11:31:00,
2013-04-19 06:36:00,34.0,26.8,29.51,West,270,6.0,6.0,75,0.00,,,0.00,WUHU21623XXSP,2013-04-19 11:36:00,
2013-04-19 06:41:00,34.0,26.5,29.51,SW,225,6.0,6.0,74,0.00,,,0.00,WUHU21623XXSP,2013-04-19 11:41:00,
2013-04-19 06:46:00,34.0,26.5,29.51,SW,225,4.3,6.0,74,0.00,,,0.00,WUHU21623XXSP,2013-04-19 11:46:00,
2013-04-19 06:51:00,34.2,26.6,29.51,West,270,1.3,6.3,74,0.00,,,0.00,WUHU21623XXSP,2013-04-19 11:51:00,
2013-04-19 06:56:00,34.2,26.3,29.51,WSW,247,6.7,6.7,73,0.00,,,0.00,WUHU21623XXSP,2013-04-19 11:56:00,
2013-04-19 07:01:00,34.2,26.3,29.51,WSW,247,3.6,6.7,73,0.00,,,0.00,WUHU21623XXSP,2013-04-19 12:01:00,
2013-04-19 07:06:00,34.2,26.3,29.51,WSW,247,5.6,5.6,73,0.00,,,0.00,WUHU21623XXSP,2013-04-19 12:06:00,
2013-04-19 07:11:00,34.2,26.3,29.51,SSW,202,5.1,5.6,73,0.00,,,0.00,WUHU21623XXSP,2013-04-19 12:11:00,
2013-04-19 07:16:00,34.2,26.3,29.52,WSW,247,4.7,5.1,73,0.00,,,0.00,WUHU21623XXSP,2013-04-19 12:16:00,
2013-04-19 07:21:00,34.2,26.3,29.52,West,270,0.0,5.1,73,0.00,,,0.00,WUHU21623XXSP,2013-04-19 12:21:00,
2013-04-19 07:26:00,34.3,26.5,29.52,WSW,247,6.3,6.3,73,0.00,,,0.00,WUHU21623XXSP,2013-04-19 12:26:00,
2013-04-19 07:31:00,34.3,26.5,29.52,West,270,7.2,7.2,73,0.00,,,0.00,WUHU21623XXSP,2013-04-19 12:31:00,
2013-04-19 07:36:00,34.3,26.5,29.52,SSW,202,6.3,7.2,73,0.00,,,0.00,WUHU21623XXSP,2013-04-19 12:36:00,
2013-04-19 07:41:00,34.3,26.5,29.52,West,270,8.3,8.3,73,0.00,,,0.00,WUHU21623XXSP,2013-04-19 12:41:00,
2013-04-19 07:46:00,34.3,26.5,29.52,West,270,0.9,8.3,73,0.00,,,0.00,WUHU21623XXSP,2013-04-19 12:46:00,
2013-04-19 07:51:00,34.3,26.5,29.52,WNW,292,8.3,8.3,73,0.00,,,0.00,WUHU21623XXSP,2013-04-19 12:51:00,
2013-04-19 07:56:00,34.5,26.3,29.52,WSW,247,4.7,8.3,72,0.00,,,0.00,WUHU21623XXSP,2013-04-19 12:56:00,
2013-04-19 08:01:00,34.5,26.0,29.52,WSW,247,5.8,7.4,71,0.00,,,0.00,WUHU21623XXSP,2013-04-19 13:01:00,
2013-04-19 08:06:00,34.5,26.0,29.52,West,270,5.4,7.2,71,0.00,,,0.00,WUHU21623XXSP,2013-04-19 13:06:00,
2013-04-19 08:11:00,34.5,25.7,29.52,West,270,5.6,8.3,70,0.00,,,0.00,WUHU21623XXSP,2013-04-19 13:11:00,
2013-04-19 08:16:00,34.5,25.7,29.52,NW,315,6.0,8.3,70,0.00,,,0.00,WUHU21623XXSP,2013-04-19 13:16:00,
2013-04-19 08:21:00,34.7,25.5,29.52,SW,225,2.7,6.0,69,0.00,,,0.00,WUHU21623XXSP,2013-04-19 13:21:00,
2013-04-19 08:26:00,34.7,25.5,29.52,West,270,6.3,6.3,68,0.00,,,0.00,WUHU21623XXSP,2013-04-19 13:26:00,
2013-04-19 08:31:00,34.9,25.3,29.53,WSW,247,5.6,6.3,68,0.00,,,0.00,WUHU21623XXSP,2013-04-19 13:31:00,
2013-04-19 08:36:00,35.2,25.3,29.52,WSW,247,8.5,8.5,67,0.00,,,0.00,WUHU21623XXSP,2013-04-19 13:36:00,
2013-04-19 08:41:00,35.8,25.5,29.53,West,270,14.1,14.1,66,0.00,,,0.00,WUHU21623XXSP,2013-04-19 13:41:00,
2013-04-19 08:46:00,35.8,25.5,29.53,West,270,13.0,14.1,66,0.02,,,0.02,WUHU21623XXSP,2013-04-19 13:46:00,
2013-04-19 08:51:00,35.6,25.3,29.53,West,270,1.3,13.0,66,0.02,,,0.02,WUHU21623XXSP,2013-04-19 13:51:00,
2013-04-19 08:56:00,35.4,25.2,29.53,WSW,247,1.8,5.8,66,0.02,,,0.02,WUHU21623XXSP,2013-04-19 13:56:00,
2013-04-19 09:01:00,35.8,25.9,29.54,SW,225,5.8,5.8,67,0.02,,,0.02,WUHU21623XXSP,2013-04-19 14:01:00,
2013-04-19 09:06:00,35.8,25.9,29.54,WSW,247,3.6,5.8,67,0.02,,,0.02,WUHU21623XXSP,2013-04-19 14:06:00,
2013-04-19 09:11:00,35.6,25.3,29.54,SW,225,5.4,5.4,66,0.02,,,0.02,WUHU21623XXSP,2013-04-19 14:11:00,
2013-04-19 09:16:00,35.4,25.5,29.54,West,270,4.5,5.4,67,0.02,,,0.02,WUHU21623XXSP,2013-04-19 14:16:00,
2013-04-19 09:21:00,35.2,25.3,29.54,West,270,0.7,5.4,67,0.02,,,0.02,WUHU21623XXSP,2013-04-19 14:21:00,
2013-04-19 09:25:00,35.2,25.7,29.55,SW,225,3.4,7.4,68,0.02,,,0.02,WUHU21623XXSP,2013-04-19 14:25:00,
2013-04-19 09:30:00,35.2,25.7,29.55,WSW,247,1.8,7.4,68,0.02,,,0.02,WUHU21623XXSP,2013-04-19 14:30:00,
2013-04-19 09:36:00,35.2,25.7,29.55,West,270,0.0,4.3,68,0.02,,,0.02,WUHU21623XXSP,2013-04-19 14:36:00,
2013-04-19 09:41:00,35.8,26.2,29.55,SW,225,4.7,11.2,68,0.00,,,0.02,WUHU21623XXSP,2013-04-19 14:41:00,
2013-04-19 09:46:00,35.8,26.2,29.55,WSW,247,1.3,11.2,68,0.00,,,0.02,WUHU21623XXSP,2013-04-19 14:46:00,
2013-04-19 09:51:00,35.8,26.2,29.55,SW,225,1.8,4.7,68,0.00,,,0.02,WUHU21623XXSP,2013-04-19 14:51:00,
2013-04-19 09:56:00,35.8,25.9,29.55,SW,225,5.6,8.5,67,0.00,,,0.02,WUHU21623XXSP,2013-04-19 14:56:00,
2013-04-19 10:00:00,35.2,25.0,29.56,WSW,247,4.0,8.5,66,0.00,,,0.02,WUHU21623XXSP,2013-04-19 15:00:00,
2013-04-19 10:05:00,35.1,25.2,29.56,SW,225,11.4,11.4,67,0.00,,,0.02,WUHU21623XXSP,2013-04-19 15:05:00,
2013-04-19 10:10:00,35.1,25.2,29.56,SW,225,3.8,11.4,67,0.00,,,0.02,WUHU21623XXSP,2013-04-19 15:10:00,
2013-04-19 10:15:00,35.1,25.5,29.57,NNW,337,0.0,11.4,68,0.00,,,0.02,WUHU21623XXSP,2013-04-19 15:15:00,
2013-04-19 10:20:00,35.2,25.7,29.57,West,270,4.0,11.2,68,0.00,,,0.02,WUHU21623XXSP,2013-04-19 15:20:00,
2013-04-19 10:25:00,35.8,26.2,29.57,West,270,3.8,11.2,68,0.00,,,0.02,WUHU21623XXSP,2013-04-19 15:25:00,
2013-04-19 10:30:00,35.8,26.2,29.57,SSW,202,5.1,6.7,68,0.00,,,0.02,WUHU21623XXSP,2013-04-19 15:30:00,
2013-04-19 10:35:00,36.1,26.2,29.57,WSW,247,5.1,8.5,67,0.00,,,0.02,WUHU21623XXSP,2013-04-19 15:35:00,
2013-04-19 10:40:00,36.5,26.4,29.57,WSW,247,4.9,8.5,66,0.00,,,0.02,WUHU21623XXSP,2013-04-19 15:40:00,
2013-04-19 10:45:00,36.7,26.0,29.58,SW,225,8.7,10.1,65,0.00,,,0.02,WUHU21623XXSP,2013-04-19 15:45:00,
2013-04-19 10:50:00,37.4,26.7,29.57,West,270,4.3,10.1,65,0.00,,,0.02,WUHU21623XXSP,2013-04-19 15:50:00,
2013-04-19 10:56:00,37.6,26.9,29.58,WSW,247,3.1,4.3,65,0.00,,,0.02,WUHU21623XXSP,2013-04-19 15:56:00,
2013-04-19 11:01:00,37.2,25.4,29.58,West,270,5.8,9.6,62,0.00,,,0.02,WUHU21623XXSP,2013-04-19 16:01:00,
2013-04-19 11:06:00,36.7,24.5,29.58,SW,225,8.7,9.6,61,0.00,,,0.02,WUHU21623XXSP,2013-04-19 16:06:00,
2013-04-19 11:11:00,36.7,24.5,29.58,West,270,11.0,11.0,61,0.00,,,0.02,WUHU21623XXSP,2013-04-19 16:11:00,
2013-04-19 11:16:00,37.0,24.8,29.58,West,270,3.4,11.0,61,0.00,,,0.02,WUHU21623XXSP,2013-04-19 16:16:00,
2013-04-19 11:21:00,37.0,24.8,29.58,WSW,247,2.5,5.8,61,0.00,,,0.02,WUHU21623XXSP,2013-04-19 16:21:00,
2013-04-19 11:25:00,36.9,24.8,29.58,SSW,202,1.3,9.2,61,0.00,,,0.02,WUHU21623XXSP,2013-04-19 16:25:00,
2013-04-19 11:30:00,36.7,24.5,29.59,WSW,247,1.3,10.1,61,0.00,,,0.02,WUHU21623XXSP,2013-04-19 16:30:00,
2013-04-19 11:35:00,36.3,24.2,29.59,West,270,11.4,11.4,61,0.00,,,0.02,WUHU21623XXSP,2013-04-19 16:35:00,
2013-04-19 11:40:00,36.0,24.2,29.60,West,270,3.6,11.4,62,0.00,,,0.02,WUHU21623XXSP,2013-04-19 16:40:00,
2013-04-19 11:45:00,36.0,24.6,29.59,SW,225,5.8,8.9,63,0.00,,,0.02,WUHU21623XXSP,2013-04-19 16:45:00,
2013-04-19 11:50:00,36.3,25.3,29.59,SW,225,0.7,10.1,64,0.00,,,0.02,WUHU21623XXSP,2013-04-19 16:50:00,
2013-04-19 11:55:00,36.5,25.1,29.60,West,270,13.9,13.9,63,0.00,,,0.02,WUHU21623XXSP,2013-04-19 16:55:00,
2013-04-19 12:00:00,36.5,24.4,29.60,West,270,10.3,13.9,61,0.00,,,0.02,WUHU21623XXSP,2013-04-19 17:00:00,
2013-04-19 12:05:00,36.5,23.6,29.60,SW,225,1.8,10.3,59,0.00,,,0.02,WUHU21623XXSP,2013-04-19 17:05:00,
2013-04-19 12:10:00,36.7,23.7,29.60,West,270,6.3,8.1,59,0.00,,,0.02,WUHU21623XXSP,2013-04-19 17:10:00,
2013-04-19 12:15:00,36.7,23.1,29.60,West,270,6.3,8.1,58,0.00,,,0.02,WUHU21623XXSP,2013-04-19 17:15:00,
2013-04-19 12:20:00,36.3,23.8,29.61,WNW,292,5.4,6.3,60,0.00,,,0.02,WUHU21623XXSP,2013-04-19 17:20:00,
2013-04-19 12:25:00,36.1,23.7,29.60,WSW,247,11.6,11.6,60,0.00,,,0.02,WUHU21623XXSP,2013-04-19 17:25:00,
2013-04-19 12:30:00,36.5,24.0,29.60,WNW,292,15.2,15.2,60,0.00,,,0.02,WUHU21623XXSP,2013-04-19 17:30:00,
2013-04-19 12:35:00,37.0,24.0,29.61,WSW,247,8.9,15.2,58,0.00,,,0.02,WUHU21623XXSP,2013-04-19 17:35:00,
2013-04-19 12:40:00,37.8,24.7,29.61,WSW,247,11.9,11.9,59,0.00,,,0.02,WUHU21623XXSP,2013-04-19 17:40:00,
2013-04-19 12:45:00,37.6,23.7,29.61,West,270,1.1,21.3,57,0.00,,,0.02,WUHU21623XXSP,2013-04-19 17:45:00,
2013-04-19 12:50:00,37.0,23.2,29.62,SW,225,9.8,21.3,57,0.00,,,0.02,WUHU21623XXSP,2013-04-19 17:50:00,
2013-04-19 12:55:00,36.5,22.7,29.61,WSW,247,13.4,13.4,57,0.00,,,0.02,WUHU21623XXSP,2013-04-19 17:55:00,
2013-04-19 13:00:00,36.5,22.3,29.62,NW,315,5.4,15.7,56,0.00,,,0.02,WUHU21623XXSP,2013-04-19 18:00:00,
2013-04-19 13:05:00,36.5,22.3,29.62,WSW,247,10.7,15.7,56,0.00,,,0.02,WUHU21623XXSP,2013-04-19 18:05:00,
2013-04-19 13:10:00,36.5,22.3,29.62,WSW,247,11.9,11.9,56,0.00,,,0.02,WUHU21623XXSP,2013-04-19 18:10:00,
2013-04-19 13:15:00,36.7,22.4,29.62,WNW,292,7.6,11.9,56,0.00,,,0.02,WUHU21623XXSP,2013-04-19 18:15:00,
2013-04-19 13:20:00,36.9,22.6,29.62,WSW,247,6.0,14.1,56,0.00,,,0.02,WUHU21623XXSP,2013-04-19 18:20:00,
2013-04-19 13:25:00,36.9,23.0,29.62,WSW,247,5.4,14.1,57,0.00,,,0.02,WUHU21623XXSP,2013-04-19 18:25:00,
2013-04-19 13:30:00,36.5,22.3,29.63,WNW,292,3.6,19.7,56,0.00,,,0.02,WUHU21623XXSP,2013-04-19 18:30:00,
2013-04-19 13:35:00,36.3,22.5,29.63,WSW,247,3.8,19.7,57,0.00,,,0.02,WUHU21623XXSP,2013-04-19 18:35:00,
2013-04-19 13:40:00,36.3,23.0,29.63,WSW,247,5.8,5.8,58,0.00,,,0.02,WUHU21623XXSP,2013-04-19 18:40:00,
2013-04-19 13:45:00,36.3,23.0,29.64,WSW,247,5.4,10.5,58,0.00,,,0.02,WUHU21623XXSP,2013-04-19 18:45:00,
2013-04-19 13:50:00,36.7,23.3,29.64,WSW,247,8.7,10.5,58,0.00,,,0.02,WUHU21623XXSP,2013-04-19 18:50:00,
2013-04-19 13:55:00,36.5,22.3,29.65,West,270,4.9,8.7,56,0.00,,,0.02,WUHU21623XXSP,2013-04-19 18:55:00,
2013-04-19 14:00:00,36.5,22.7,29.65,WNW,292,6.7,7.2,57,0.00,,,0.02,WUHU21623XXSP,2013-04-19 19:00:00,
2013-04-19 14:05:00,36.5,22.3,29.65,ESE,112,0.9,12.8,56,0.00,,,0.02,WUHU21623XXSP,2013-04-19 19:05:00,
2013-04-19 14:10:00,36.5,22.3,29.66,West,270,4.3,12.8,56,0.00,,,0.02,WUHU21623XXSP,2013-04-19 19:10:00,
2013-04-19 14:15:00,36.7,22.4,29.66,West,270,3.6,9.6,56,0.00,,,0.02,WUHU21623XXSP,2013-04-19 19:15:00,
2013-04-19 14:20:00,37.0,22.7,29.66,SW,225,11.6,12.3,56,0.00,,,0.02,WUHU21623XXSP,2013-04-19 19:20:00,
2013-04-19 14:25:00,37.8,23.0,29.66,WNW,292,13.0,13.0,55,0.00,,,0.02,WUHU21623XXSP,2013-04-19 19:25:00,
2013-04-19 14:30:00,38.1,23.1,29.66,West,270,14.1,14.1,54,0.00,,,0.02,WUHU21623XXSP,2013-04-19 19:30:00,
2013-04-19 14:35:00,37.9,22.3,29.67,West,270,2.0,14.1,53,0.00,,,0.02,WUHU21623XXSP,2013-04-19 19:35:00,
2013-04-19 14:40:00,37.6,22.4,29.67,WSW,247,1.1,11.2,54,0.00,,,0.02,WUHU21623XXSP,2013-04-19 19:40:00,
2013-04-19 14:45:00,37.2,22.0,29.68,West,270,5.6,11.2,54,0.00,,,0.02,WUHU21623XXSP,2013-04-19 19:45:00,
2013-04-19 14:50:00,37.4,22.2,29.68,SW,225,10.5,10.5,54,0.00,,,0.02,WUHU21623XXSP,2013-04-19 19:50:00,
2013-04-19 14:55:00,37.6,21.9,29.68,SW,225,14.3,14.3,53,0.00,,,0.02,WUHU21623XXSP,2013-04-19 19:55:00,
2013-04-19 15:00:00,37.4,22.2,29.68,WSW,247,8.1,14.3,54,0.00,,,0.02,WUHU21623XXSP,2013-04-19 20:00:00,
2013-04-19 15:05:00,37.4,21.8,29.68,WSW,247,6.7,9.2,53,0.00,,,0.02,WUHU21623XXSP,2013-04-19 20:05:00,
2013-04-19 15:10:00,37.2,21.2,29.68,West,270,9.2,9.2,52,0.00,,,0.02,WUHU21623XXSP,2013-04-19 20:10:00,
2013-04-19 15:15:00,37.0,21.0,29.68,WNW,292,6.3,9.2,52,0.00,,,0.02,WUHU21623XXSP,2013-04-19 20:15:00,
2013-04-19 15:20:00,37.2,21.6,29.68,WSW,247,5.4,11.9,53,0.00,,,0.02,WUHU21623XXSP,2013-04-19 20:20:00,
2013-04-19 15:25:00,37.8,22.1,29.69,West,270,6.0,11.9,53,0.00,,,0.02,WUHU21623XXSP,2013-04-19 20:25:00,
2013-04-19 15:30:00,37.9,22.3,29.69,West,270,4.9,8.1,52,0.00,,,0.02,WUHU21623XXSP,2013-04-19 20:30:00,
2013-04-19 15:35:00,38.5,22.7,29.69,WSW,247,2.5,8.1,53,0.00,,,0.02,WUHU21623XXSP,2013-04-19 20:35:00,
2013-04-19 15:40:00,38.8,22.6,29.69,WSW,247,9.4,16.3,52,0.00,,,0.02,WUHU21623XXSP,2013-04-19 20:40:00,
2013-04-19 15:45:00,38.8,22.2,29.69,WNW,292,9.8,16.3,51,0.00,,,0.02,WUHU21623XXSP,2013-04-19 20:45:00,
2013-04-19 15:50:00,38.7,21.6,29.69,WSW,247,9.8,9.8,50,0.00,,,0.02,WUHU21623XXSP,2013-04-19 20:50:00,
2013-04-19 15:55:00,38.7,22.0,29.69,West,270,13.2,13.2,51,0.00,,,0.02,WUHU21623XXSP,2013-04-19 20:55:00,
2013-04-19 16:00:00,38.3,21.7,29.69,West,270,4.3,13.2,51,0.00,,,0.02,WUHU21623XXSP,2013-04-19 21:00:00,
2013-04-19 16:05:00,38.3,21.7,29.70,WSW,247,5.8,5.8,51,0.00,,,0.02,WUHU21623XXSP,2013-04-19 21:05:00,
2013-04-19 16:10:00,38.5,22.7,29.70,WSW,247,0.0,7.4,53,0.00,,,0.02,WUHU21623XXSP,2013-04-19 21:10:00,
2013-04-19 16:15:00,38.7,22.9,29.70,West,270,10.1,10.1,53,0.00,,,0.02,WUHU21623XXSP,2013-04-19 21:15:00,
2013-04-19 16:20:00,38.3,22.2,29.70,WNW,292,4.3,10.7,52,0.00,,,0.02,WUHU21623XXSP,2013-04-19 21:20:00,
2013-04-19 16:25:00,38.1,22.4,29.70,SW,225,4.9,10.7,53,0.00,,,0.02,WUHU21623XXSP,2013-04-19 21:25:00,
2013-04-19 16:30:00,37.8,22.5,29.71,South,180,6.3,9.8,54,0.00,,,0.02,WUHU21623XXSP,2013-04-19 21:30:00,
2013-04-19 16:35:00,37.2,22.8,29.71,WNW,292,11.6,11.6,55,0.00,,,0.02,WUHU21623XXSP,2013-04-19 21:35:00,
2013-04-19 16:40:00,37.0,23.2,29.71,SW,225,10.3,11.6,57,0.00,,,0.02,WUHU21623XXSP,2013-04-19 21:40:00,
2013-04-19 16:45:00,37.0,23.6,29.71,West,270,14.1,14.1,58,0.00,,,0.02,WUHU21623XXSP,2013-04-19 21:45:00,
2013-04-19 16:50:00,37.0,23.2,29.72,WSW,247,16.3,16.3,57,0.00,,,0.02,WUHU21623XXSP,2013-04-19 21:50:00,
2013-04-19 16:55:00,36.9,23.4,29.73,SSW,202,2.0,16.3,58,0.00,,,0.02,WUHU21623XXSP,2013-04-19 21:55:00,
2013-04-19 17:00:00,36.9,23.4,29.73,WSW,247,0.7,10.7,58,0.00,,,0.02,WUHU21623XXSP,2013-04-19 22:00:00,
2013-04-19 17:05:00,37.0,23.6,29.73,SW,225,3.4,9.2,58,0.00,,,0.02,WUHU21623XXSP,2013-04-19 22:05:00,
2013-04-19 17:10:00,37.0,23.2,29.73,WSW,247,12.8,12.8,57,0.00,,,0.02,WUHU21623XXSP,2013-04-19 22:10:00,
2013-04-19 17:15:00,37.2,23.3,29.74,West,270,11.0,12.8,57,0.00,,,0.02,WUHU21623XXSP,2013-04-19 22:15:00,
2013-04-19 17:20:00,37.4,23.5,29.74,SW,225,6.5,11.0,57,0.00,,,0.02,WUHU21623XXSP,2013-04-19 22:20:00,
2013-04-19 17:25:00,37.2,22.5,29.74,West,270,7.4,8.7,55,0.00,,,0.02,WUHU21623XXSP,2013-04-19 22:25:00,
2013-04-19 17:30:00,37.0,21.9,29.75,West,270,6.7,7.4,54,0.00,,,0.02,WUHU21623XXSP,2013-04-19 22:30:00,
2013-04-19 17:35:00,37.0,21.9,29.75,West,270,6.5,6.9,54,0.00,,,0.02,WUHU21623XXSP,2013-04-19 22:35:00,
2013-04-19 17:40:00,37.0,21.9,29.75,WNW,292,6.5,10.3,54,0.00,,,0.02,WUHU21623XXSP,2013-04-19 22:40:00,
2013-04-19 17:45:00,36.9,21.7,29.76,WSW,247,10.7,10.7,54,0.00,,,0.02,WUHU21623XXSP,2013-04-19 22:45:00,
2013-04-19 17:50:00,36.5,21.4,29.76,NW,315,15.9,15.9,54,0.00,,,0.02,WUHU21623XXSP,2013-04-19 22:50:00,
2013-04-19 17:55:00,36.5,21.8,29.76,West,270,6.9,15.9,55,0.00,,,0.02,WUHU21623XXSP,2013-04-19 22:55:00,
2013-04-19 18:00:00,36.3,22.1,29.76,WSW,247,5.8,15.9,56,0.00,,,0.02,WUHU21623XXSP,2013-04-19 23:00:00,
2013-04-19 18:05:00,36.1,22.4,29.76,WNW,292,5.1,6.5,57,0.00,,,0.02,WUHU21623XXSP,2013-04-19 23:05:00,
2013-04-19 18:10:00,36.0,22.6,29.77,WSW,247,0.0,8.5,58,0.00,,,0.02,WUHU21623XXSP,2013-04-19 23:10:00,
2013-04-19 18:15:00,36.0,22.6,29.77,WSW,247,4.5,8.5,58,0.00,,,0.02,WUHU21623XXSP,2013-04-19 23:15:00,
2013-04-19 18:28:00,36.1,22.4,29.77,West,270,1.3,1.3,57,0.00,,,0.02,WUHU21623XXSP,2013-04-19 23:28:00,
2013-04-19 18:33:00,36.1,22.4,29.77,SW,225,9.6,9.6,57,0.00,,,0.02,WUHU21623XXSP,2013-04-19 23:33:00,
2013-04-19 18:38:00,36.1,22.4,29.78,NW,315,5.8,9.6,57,0.00,,,0.02,WUHU21623XXSP,2013-04-19 23:38:00,
2013-04-19 18:43:00,36.0,21.8,29.78,WSW,247,4.0,6.3,56,0.00,,,0.02,WUHU21623XXSP,2013-04-19 23:43:00,
2013-04-19 18:48:00,36.1,22.4,29.78,WSW,247,4.9,6.3,57,0.00,,,0.02,WUHU21623XXSP,2013-04-19 23:48:00,
2013-04-19 18:53:00,36.0,22.2,29.79,NNW,337,5.8,5.8,57,0.00,,,0.02,WUHU21623XXSP,2013-04-19 23:53:00,
2013-04-19 18:58:00,36.0,21.8,29.79,WSW,247,4.9,7.4,56,0.00,,,0.02,WUHU21623XXSP,2013-04-19 23:58:00,
2013-04-19 19:03:00,36.0,21.8,29.79,WSW,247,2.9,7.4,56,0.00,,,0.02,WUHU21623XXSP,2013-04-20 00:03:00,
2013-04-19 19:08:00,36.0,21.8,29.80,NW,315,3.4,4.9,56,0.00,,,0.02,WUHU21623XXSP,2013-04-20 00:08:00,
2013-04-19 19:13:00,35.8,22.0,29.80,WNW,292,1.3,7.8,57,0.00,,,0.02,WUHU21623XXSP,2013-04-20 00:13:00,
2013-04-19 19:18:00,35.6,21.9,29.80,WSW,247,4.0,7.8,57,0.00,,,0.02,WUHU21623XXSP,2013-04-20 00:18:00,
2013-04-19 19:23:00,35.4,21.7,29.81,WNW,292,5.4,5.4,57,0.00,,,0.02,WUHU21623XXSP,2013-04-20 00:23:00,
2013-04-19 19:28:00,35.4,22.1,29.81,WNW,292,10.1,10.1,58,0.00,,,0.02,WUHU21623XXSP,2013-04-20 00:28:00,
2013-04-19 19:33:00,35.4,22.1,29.81,WNW,292,4.7,10.1,58,0.00,,,0.02,WUHU21623XXSP,2013-04-20 00:33:00,
2013-04-19 19:38:00,35.2,22.0,29.82,NW,315,3.1,7.2,58,0.00,,,0.02,WUHU21623XXSP,2013-04-20 00:38:00,
2013-04-19 19:43:00,35.2,22.0,29.82,WNW,292,6.5,6.5,58,0.00,,,0.02,WUHU21623XXSP,2013-04-20 00:43:00,
2013-04-19 19:48:00,35.2,22.0,29.83,WSW,247,6.5,6.5,58,0.00,,,0.02,WUHU21623XXSP,2013-04-20 00:48:00,
2013-04-19 19:53:00,35.2,22.0,29.83,WSW,247,2.5,6.5,58,0.00,,,0.02,WUHU21623XXSP,2013-04-20 00:53:00,
2013-04-19 19:58:00,35.2,22.0,29.83,WSW,247,7.2,7.2,58,0.00,,,0.02,WUHU21623XXSP,2013-04-20 00:58:00,
2013-04-19 20:03:00,35.1,21.8,29.84,West,270,8.1,8.1,58,0.00,,,0.02,WUHU21623XXSP,2013-04-20 01:03:00,
2013-04-19 20:08:00,35.1,21.8,29.84,NW,315,0.9,8.1,58,0.00,,,0.02,WUHU21623XXSP,2013-04-20 01:08:00,
2013-04-19 20:13:00,35.1,21.8,29.84,West,270,0.0,10.7,58,0.00,,,0.02,WUHU21623XXSP,2013-04-20 01:13:00,
2013-04-19 20:18:00,35.1,22.2,29.84,NW,315,5.4,10.7,59,0.00,,,0.02,WUHU21623XXSP,2013-04-20 01:18:00,
2013-04-19 20:23:00,34.9,22.0,29.84,West,270,6.3,6.3,59,0.00,,,0.02,WUHU21623XXSP,2013-04-20 01:23:00,
2013-04-19 20:28:00,34.7,21.4,29.85,WSW,247,5.8,8.9,58,0.00,,,0.02,WUHU21623XXSP,2013-04-20 01:28:00,
2013-04-19 20:33:00,34.7,21.8,29.85,NW,315,4.3,8.9,59,0.00,,,0.02,WUHU21623XXSP,2013-04-20 01:33:00,
2013-04-19 20:38:00,34.7,22.3,29.85,West,270,4.7,6.0,60,0.00,,,0.02,WUHU21623XXSP,2013-04-20 01:38:00,
2013-04-19 20:43:00,34.7,22.3,29.86,West,270,4.5,6.5,60,0.00,,,0.02,WUHU21623XXSP,2013-04-20 01:43:00,
2013-04-19 20:48:00,34.5,22.1,29.86,WNW,292,2.7,6.5,60,0.00,,,0.02,WUHU21623XXSP,2013-04-20 01:48:00,
2013-04-19 20:53:00,34.5,22.1,29.87,West,270,4.0,4.0,60,0.00,,,0.02,WUHU21623XXSP,2013-04-20 01:53:00,
2013-04-19 20:58:00,34.5,22.5,29.87,West,270,5.4,5.4,61,0.00,,,0.02,WUHU21623XXSP,2013-04-20 01:58:00,
2013-04-19 21:03:00,34.5,22.5,29.87,WSW,247,2.5,5.4,61,0.00,,,0.02,WUHU21623XXSP,2013-04-20 02:03:00,
2013-04-19 21:08:00,34.3,22.3,29.87,WSW,247,2.5,3.8,61,0.00,,,0.02,WUHU21623XXSP,2013-04-20 02:08:00,
2013-04-19 21:13:00,34.3,22.3,29.88,West,270,5.4,5.4,62,0.00,,,0.02,WUHU21623XXSP,2013-04-20 02:13:00,
2013-04-19 21:18:00,34.3,22.6,29.88,West,270,9.6,9.6,62,0.00,,,0.02,WUHU21623XXSP,2013-04-20 02:18:00,
2013-04-19 21:23:00,34.3,22.6,29.88,West,270,4.3,9.6,62,0.00,,,0.02,WUHU21623XXSP,2013-04-20 02:23:00,
2013-04-19 21:28:00,34.3,22.6,29.88,WSW,247,1.6,4.3,62,0.00,,,0.02,WUHU21623XXSP,2013-04-20 02:28:00,
2013-04-19 21:33:00,34.3,22.6,29.89,WSW,247,1.1,4.3,62,0.00,,,0.02,WUHU21623XXSP,2013-04-20 02:33:00,
2013-04-19 21:38:00,34.3,22.6,29.89,NNW,337,3.1,3.6,62,0.00,,,0.02,WUHU21623XXSP,2013-04-20 02:38:00,
2013-04-19 21:43:00,34.3,23.0,29.90,WSW,247,4.7,4.7,63,0.00,,,0.02,WUHU21623XXSP,2013-04-20 02:43:00,
2013-04-19 21:48:00,34.2,22.8,29.90,West,270,6.0,6.0,63,0.00,,,0.02,WUHU21623XXSP,2013-04-20 02:48:00,
2013-04-19 21:53:00,34.2,22.8,29.90,West,270,0.7,6.0,63,0.00,,,0.02,WUHU21623XXSP,2013-04-20 02:53:00,
2013-04-19 21:58:00,34.2,22.8,29.91,West,270,3.4,6.5,63,0.00,,,0.02,WUHU21623XXSP,2013-04-20 02:58:00,
2013-04-19 22:03:00,34.2,22.8,29.91,NNW,337,0.9,6.5,63,0.00,,,0.02,WUHU21623XXSP,2013-04-20 03:03:00,
2013-04-19 22:08:00,34.2,22.8,29.90,WSW,247,2.0,4.9,63,0.00,,,0.02,WUHU21623XXSP,2013-04-20 03:08:00,
2013-04-19 22:13:00,34.2,22.8,29.91,WSW,247,2.5,2.5,63,0.00,,,0.02,WUHU21623XXSP,2013-04-20 03:13:00,
2013-04-19 22:18:00,34.0,22.8,29.91,West,270,2.5,2.5,63,0.00,,,0.02,WUHU21623XXSP,2013-04-20 03:18:00,
2013-04-19 22:23:00,34.0,23.0,29.91,SW,225,1.6,2.5,64,0.00,,,0.02,WUHU21623XXSP,2013-04-20 03:23:00,
2013-04-19 22:28:00,33.8,22.8,29.91,NW,315,0.7,3.8,64,0.00,,,0.02,WUHU21623XXSP,2013-04-20 03:28:00,
2013-04-19 22:33:00,33.6,22.7,29.91,WSW,247,4.3,4.3,64,0.00,,,0.02,WUHU21623XXSP,2013-04-20 03:33:00,
2013-04-19 22:38:00,33.4,22.5,29.91,West,270,1.3,4.3,64,0.00,,,0.02,WUHU21623XXSP,2013-04-20 03:38:00,
2013-04-19 22:43:00,33.4,22.5,29.91,WSW,247,4.0,4.0,64,0.00,,,0.02,WUHU21623XXSP,2013-04-20 03:43:00,
2013-04-19 22:48:00,33.4,22.5,29.92,WSW,247,7.6,7.6,64,0.00,,,0.02,WUHU21623XXSP,2013-04-20 03:48:00,
2013-04-19 22:53:00,33.4,22.5,29.92,WNW,292,7.8,7.8,64,0.00,,,0.02,WUHU21623XXSP,2013-04-20 03:53:00,
2013-04-19 22:58:00,33.4,22.9,29.92,West,270,4.9,7.8,65,0.00,,,0.02,WUHU21623XXSP,2013-04-20 03:58:00,
2013-04-19 23:01:00,33.3,22.7,29.92,NNW,337,0.9,7.8,65,0.00,,,0.02,WUHU21623XXSP,2013-04-20 04:01:00,
2013-04-19 23:06:00,33.3,22.7,29.92,West,270,0.0,4.9,65,0.00,,,0.02,WUHU21623XXSP,2013-04-20 04:06:00,
2013-04-19 23:11:00,33.1,22.5,29.93,WSW,247,0.7,2.9,65,0.00,,,0.02,WUHU21623XXSP,2013-04-20 04:11:00,
2013-04-19 23:16:00,33.1,22.5,29.93,WSW,247,2.2,3.4,65,0.00,,,0.02,WUHU21623XXSP,2013-04-20 04:16:00,
2013-04-19 23:21:00,32.9,22.4,29.93,West,270,1.1,3.4,65,0.00,,,0.02,WUHU21623XXSP,2013-04-20 04:21:00,
2013-04-19 23:26:00,32.9,22.4,29.94,WSW,247,1.3,2.5,65,0.00,,,0.02,WUHU21623XXSP,2013-04-20 04:26:00,
2013-04-19 23:31:00,32.9,22.4,29.94,WSW,247,3.4,3.4,65,0.00,,,0.02,WUHU21623XXSP,2013-04-20 04:31:00,
2013-04-19 23:36:00,32.9,22.7,29.94,West,270,0.0,6.3,66,0.00,,,0.02,WUHU21623XXSP,2013-04-20 04:36:00,
2013-04-19 23:41:00,32.9,22.7,29.94,West,270,0.7,6.3,66,0.00,,,0.02,WUHU21623XXSP,2013-04-20 04:41:00,
2013-04-19 23:46:00,32.9,22.7,29.94,West,270,2.5,2.7,66,0.00,,,0.02,WUHU21623XXSP,2013-04-20 04:46:00,
2013-04-19 23:51:00,32.9,22.7,29.94,WNW,292,1.8,5.8,66,0.00,,,0.02,WUHU21623XXSP,2013-04-20 04:51:00,
2013-04-19 23:56:00,32.9,22.7,29.94,West,270,2.0,5.8,66,0.00,,,0.02,WUHU21623XXSP,2013-04-20 04:56:00,